CW5619 Weather Reports


Display with metric or nautical units.
time (UTC)temp
F
wind
direction
speed
MPH
gust
MPH
rain 1hr
in
rain 24hr
in
rain mn
in
humidity
%
barometer
mb
20260508124903 58 81 0.0 2.0 0.00 0.00 0.00 49 1013.9
20260508123902 58 80 0.0 1.0 0.00 0.00 0.00 49 1013.8
20260508123403 58 80 0.0 2.0 0.00 0.00 0.00 49 1013.8
20260508122904 58 80 0.0 2.0 0.00 0.00 0.00 48 1013.8
20260508122403 58 80 0.0 2.0 0.00 0.00 0.00 48 1013.7
20260508121903 58 82 1.0 2.0 0.00 0.00 0.00 48 1013.6
20260508121403 58 97 0.0 2.0 0.00 0.00 0.00 48 1013.6
20260508120902 58 98 0.0 2.0 0.00 0.00 0.00 48 1013.5
20260508120403 58 97 1.0 3.0 0.00 0.00 0.00 47 1013.5
20260508115903 59 93 1.0 3.0 0.00 0.00 0.00 47 1013.5
20260508115403 59 98 1.0 3.0 0.00 0.00 0.00 47 1013.4
20260508114903 59 105 0.0 2.0 0.00 0.00 0.00 47 1013.4
20260508114403 59 95 1.0 3.0 0.00 0.00 0.00 47 1013.5
20260508113903 59 87 1.0 3.0 0.00 0.00 0.00 46 1013.5
20260508113403 59 81 0.0 2.0 0.00 0.00 0.00 46 1013.4
20260508112903 59 78 0.0 2.0 0.00 0.00 0.00 47 1013.4
20260508112404 59 78 0.0 1.0 0.00 0.00 0.00 46 1013.3
20260508110903 60 78 1.0 3.0 0.00 0.00 0.00 45 1013.3
20260508110403 60 83 1.0 3.0 0.00 0.00 0.00 45 1013.1
20260508105903 60 97 0.0 2.0 0.00 0.00 0.00 45 1013.1
20260508105403 60 91 0.0 2.0 0.00 0.00 0.00 45 1013.1
20260508104903 60 85 0.0 2.0 0.00 0.00 0.00 45 1013.2
20260508104403 60 85 0.0 2.0 0.00 0.00 0.00 45 1013.2
20260508103902 60 84 1.0 2.0 0.00 0.00 0.00 45 1013.1
20260508102903 61 84 1.0 3.0 0.00 0.00 0.00 45 1013.1
20260508102403 61 77 0.0 2.0 0.00 0.00 0.00 45 1013.1
20260508101902 61 64 1.0 2.0 0.00 0.00 0.00 44 1013.1
20260508101403 61 87 0.0 1.0 0.00 0.00 0.00 44 1013.1
20260508100903 61 87 0.0 1.0 0.00 0.00 0.00 43 1013.1
20260508100402 61 87 0.0 1.0 0.00 0.00 0.00 43 1013.0
20260508095903 62 87 0.0 2.0 0.00 0.00 0.00 42 1013.1
20260508095403 62 87 0.0 2.0 0.00 0.00 0.00 42 1012.9
20260508094902 62 87 0.0 2.0 0.00 0.00 0.00 42 1012.9
20260508094403 62 72 1.0 2.0 0.00 0.00 0.00 42 1012.9
20260508093403 62 98 1.0 3.0 0.00 0.00 0.00 41 1012.9
20260508091903 63 69 0.0 2.0 0.00 0.00 0.00 40 1012.9
20260508090903 63 88 0.0 3.0 0.00 0.00 0.00 39 1013.0
20260508090402 63 91 0.0 3.0 0.00 0.00 0.00 40 1013.0
20260508085903 64 96 1.0 2.0 0.00 0.00 0.00 40 1012.9
20260508085403 64 61 0.0 2.0 0.00 0.00 0.00 39 1013.0
20260508084903 64 61 1.0 2.0 0.00 0.00 0.00 38 1013.0
20260508084404 65 55 1.0 2.0 0.00 0.00 0.00 38 1013.1
20260508083904 65 54 0.0 2.0 0.00 0.00 0.00 38 1013.1
20260508083403 65 46 1.0 2.0 0.00 0.00 0.00 38 1013.1
20260508082903 65 45 0.0 3.0 0.00 0.00 0.00 38 1013.2
20260508082402 65 71 1.0 3.0 0.00 0.00 0.00 38 1013.3
20260508081902 65 71 0.0 2.0 0.00 0.00 0.00 38 1013.3
20260508081402 65 72 1.0 2.0 0.00 0.00 0.00 37 1013.3
20260508080902 65 64 1.0 2.0 0.00 0.00 0.00 38 1013.2
20260508080404 65 59 1.0 2.0 0.00 0.00 0.00 38 1013.3
20260508075903 65 81 0.0 0.0 0.00 0.00 0.00 39 1013.3
20260508075404 65 81 0.0 0.0 0.00 0.00 0.00 40 1013.4
20260508074903 65 81 0.0 0.0 0.00 0.00 0.00 42 1013.5
20260508074403 65 81 0.0 0.0 0.00 0.00 0.00 41 1013.5
20260508073903 66 81 0.0 0.0 0.00 0.00 0.00 38 1013.6
20260508073402 66 81 0.0 0.0 0.00 0.00 0.00 38 1013.7
20260508072904 66 81 0.0 0.0 0.00 0.00 0.00 38 1013.7
20260508071903 67 81 0.0 0.0 0.00 0.00 0.00 37 1013.6
20260508071403 67 81 0.0 0.0 0.00 0.00 0.00 36 1013.7
20260508070903 67 81 0.0 0.0 0.00 0.00 0.00 35 1013.6
20260508070402 68 81 0.0 0.0 0.00 0.00 0.00 34 1013.7
20260508065904 68 81 0.0 0.0 0.00 0.00 0.00 33 1013.6
20260508065403 68 81 0.0 0.0 0.00 0.00 0.00 33 1013.6
20260508064903 69 81 0.0 0.0 0.00 0.00 0.00 32 1013.6
20260508064402 69 81 0.0 0.0 0.00 0.00 0.00 32 1013.6
20260508063903 69 81 0.0 0.0 0.00 0.00 0.00 32 1013.7
20260508063403 69 81 0.0 1.0 0.00 0.00 0.00 32 1013.7
20260508062903 69 81 0.0 1.0 0.00 0.00 0.00 32 1013.7
20260508062402 70 81 0.0 1.0 0.00 0.00 0.00 31 1013.8
20260508061904 70 81 0.0 1.0 0.00 0.00 0.00 30 1013.8
20260508061403 70 81 0.0 1.0 0.00 0.00 0.00 30 1013.8
20260508060904 71 81 0.0 1.0 0.00 0.00 0.00 29 1013.8
20260508055903 71 82 0.0 3.0 0.00 0.00 0.00 28 1013.8
20260508054902 71 61 1.0 2.0 0.00 0.00 0.00 29 1013.8
20260508054403 72 61 0.0 1.0 0.00 0.00 0.00 28 1013.9
20260508053903 72 61 0.0 1.0 0.00 0.00 0.00 28 1013.9
20260508053403 73 61 0.0 1.0 0.00 0.00 0.00 26 1013.8
20260508052902 73 61 0.0 2.0 0.00 0.00 0.00 26 1013.7
20260508052404 73 61 0.0 2.0 0.00 0.00 0.00 25 1013.7
20260508051903 73 64 1.0 2.0 0.00 0.00 0.00 25 1013.7
20260508051402 73 67 1.0 2.0 0.00 0.00 0.00 26 1013.7
20260508045402 75 61 0.0 2.0 0.00 0.00 0.00 25 1013.3
20260508044402 77 70 1.0 3.0 0.00 0.00 0.00 22 1013.2
20260508043903 78 82 1.0 3.0 0.00 0.00 0.00 20 1013.2
20260508042903 78 163 0.0 5.0 0.00 0.00 0.00 19 1013.0
20260508042402 79 201 2.0 8.0 0.00 0.00 0.00 19 1013.0
20260508041902 79 241 2.0 10.0 0.00 0.00 0.00 19 1012.9
20260508041404 79 224 4.0 10.0 0.00 0.00 0.00 19 1012.8
20260508040403 79 238 5.0 10.0 0.00 0.00 0.00 19 1012.8
20260508035904 79 228 3.0 8.0 0.00 0.00 0.00 18 1012.6
20260508035403 79 244 3.0 8.0 0.00 0.00 0.00 18 1012.6
20260508034902 80 235 4.0 8.0 0.00 0.00 0.00 18 1012.6
20260508034403 80 224 3.0 8.0 0.00 0.00 0.00 18 1012.5
20260508033902 80 221 4.0 9.0 0.00 0.00 0.00 18 1012.3
20260508033402 80 218 1.0 9.0 0.00 0.00 0.00 18 1012.3
20260508032904 80 258 0.0 5.0 0.00 0.00 0.00 17 1012.0
20260508032403 80 200 2.0 5.0 0.00 0.00 0.00 17 1011.9
20260508031903 80 169 1.0 7.0 0.00 0.00 0.00 17 1011.9
20260508031403 80 219 1.0 7.0 0.00 0.00 0.00 17 1011.8
20260508025902 81 235 2.0 6.0 0.00 0.00 0.00 16 1011.4
20260508025403 82 248 1.0 8.0 0.00 0.00 0.00 16 1011.3
20260508024903 82 240 3.0 8.0 0.00 0.00 0.00 15 1011.2
20260508023903 83 248 2.0 7.0 0.00 0.00 0.00 12 1011.0
20260508023402 83 221 1.0 7.0 0.00 0.00 0.00 12 1010.8
20260508022903 83 247 2.0 7.0 0.00 0.00 0.00 12 1010.7
20260508022402 84 232 3.0 7.0 0.00 0.00 0.00 12 1010.6
20260508021403 84 233 3.0 8.0 0.00 0.00 0.00 12 1010.5
20260508020903 85 219 1.0 8.0 0.00 0.00 0.00 12 1010.4
20260508020403 85 223 3.0 8.0 0.00 0.00 0.00 12 1010.4
20260508015903 85 239 2.0 8.0 0.00 0.00 0.00 12 1010.2
20260508015403 85 240 3.0 8.0 0.00 0.00 0.00 12 1010.2
20260508014903 86 217 2.0 10.0 0.00 0.00 0.00 12 1010.1
20260508014403 86 208 3.0 10.0 0.00 0.00 0.00 11 1010.1
20260508013403 86 188 2.0 7.0 0.00 0.00 0.00 11 1010.0
20260508012903 87 216 3.0 7.0 0.00 0.00 0.00 11 1009.9
20260508012403 87 204 1.0 8.0 0.00 0.00 0.00 11 1009.9
20260508011902 87 193 3.0 9.0 0.00 0.00 0.00 11 1009.9
20260508011403 87 259 2.0 9.0 0.00 0.00 0.00 11 1009.9
20260508010903 87 275 2.0 10.0 0.00 0.00 0.00 11 1009.9
20260508010403 88 224 3.0 12.0 0.00 0.00 0.00 11 1009.9
20260508005903 88 191 3.0 12.0 0.00 0.00 0.00 11 1009.7
20260508005402 88 224 5.0 12.0 0.00 0.00 0.00 11 1009.6
20260508004903 88 214 3.0 8.0 0.00 0.00 0.00 11 1009.6
20260508004402 88 293 2.0 8.0 0.00 0.00 0.00 11 1009.5
20260508003903 89 260 3.0 10.0 0.00 0.00 0.00 11 1009.6
20260508003403 89 337 2.0 10.0 0.00 0.00 0.00 11 1009.5
20260508002902 89 248 5.0 10.0 0.00 0.00 0.00 11 1009.5
20260508001403 89 84 3.0 9.0 0.00 0.00 0.00 11 1009.5
20260508000405 90 305 4.0 9.0 0.00 0.00 0.00 11 1009.6
20260507235402 90 252 2.0 7.0 0.00 0.00 0.00 11 1009.4
20260507234903 90 223 3.0 8.0 0.00 0.00 0.00 11 1009.4
20260507234403 90 268 2.0 10.0 0.00 0.00 0.00 11 1009.4
20260507233903 90 198 3.0 10.0 0.00 0.00 0.00 12 1009.4
20260507233402 90 296 4.0 10.0 0.00 0.00 0.00 12 1009.4
20260507232903 90 190 2.0 10.0 0.00 0.00 0.00 12 1009.4
20260507232403 90 257 1.0 3.0 0.00 0.00 0.00 12 1009.6
20260507231903 90 23 2.0 10.0 0.00 0.00 0.00 12 1009.5
20260507231403 91 58 2.0 10.0 0.00 0.00 0.00 12 1009.6
20260507230903 91 323 3.0 10.0 0.00 0.00 0.00 12 1009.6
20260507230403 91 308 3.0 12.0 0.00 0.00 0.00 12 1009.6
20260507225902 91 236 6.0 12.0 0.00 0.00 0.00 11 1009.5
20260507225403 91 209 5.0 15.0 0.00 0.00 0.00 12 1009.6
20260507224903 92 217 3.0 15.0 0.00 0.00 0.00 12 1009.8
20260507224403 92 208 2.0 5.0 0.00 0.00 0.00 12 1009.6
20260507223903 91 345 2.0 10.0 0.00 0.00 0.00 12 1009.7
20260507223403 92 207 2.0 10.0 0.00 0.00 0.00 11 1009.7
20260507222903 92 221 3.0 10.0 0.00 0.00 0.00 12 1009.8
20260507222403 92 86 3.0 12.0 0.00 0.00 0.00 12 1009.9
20260507221903 92 276 2.0 12.0 0.00 0.00 0.00 12 1010.0
20260507221403 93 200 3.0 9.0 0.00 0.00 0.00 11 1010.0
20260507220903 93 267 2.0 9.0 0.00 0.00 0.00 11 1010.1
20260507220403 92 29 2.0 9.0 0.00 0.00 0.00 12 1010.2
20260507215902 91 13 5.0 9.0 0.00 0.00 0.00 12 1010.1
20260507215402 92 91 2.0 8.0 0.00 0.00 0.00 12 1010.3
20260507214904 91 222 3.0 8.0 0.00 0.00 0.00 12 1010.2
20260507214403 90 191 2.0 7.0 0.00 0.00 0.00 13 1010.3
20260507213903 90 229 3.0 9.0 0.00 0.00 0.00 13 1010.4
20260507213403 90 234 2.0 10.0 0.00 0.00 0.00 13 1010.4
20260507212902 92 229 3.0 10.0 0.00 0.00 0.00 12 1010.6
20260507212403 92 234 3.0 8.0 0.00 0.00 0.00 12 1010.7
20260507211903 92 71 2.0 9.0 0.00 0.00 0.00 12 1010.7
20260507211403 92 187 3.0 9.0 0.00 0.00 0.00 13 1010.9
20260507210902 92 226 3.0 9.0 0.00 0.00 0.00 12 1010.9
20260507210402 92 2 4.0 12.0 0.00 0.00 0.00 12 1011.1
20260507205903 91 314 3.0 12.0 0.00 0.00 0.00 12 1011.0
20260507205402 91 197 5.0 9.0 0.00 0.00 0.00 11 1011.0
20260507204404 90 217 3.0 10.0 0.00 0.00 0.00 11 1011.1
20260507203903 90 236 3.0 7.0 0.00 0.00 0.00 11 1011.3
20260507203403 90 240 2.0 8.0 0.00 0.00 0.00 11 1011.4
20260507202904 91 238 3.0 12.0 0.00 0.00 0.00 11 1011.4
20260507202402 92 215 4.0 12.0 0.00 0.00 0.00 11 1011.4
20260507201902 90 2 2.0 10.0 0.00 0.00 0.00 11 1011.5
20260507201403 91 90 2.0 10.0 0.00 0.00 0.00 11 1011.7
20260507200904 90 244 2.0 9.0 0.00 0.00 0.00 11 1011.6
20260507195903 90 201 2.0 10.0 0.00 0.00 0.00 10 1011.7
20260507195403 90 228 4.0 10.0 0.00 0.00 0.00 11 1011.8
20260507193903 90 226 3.0 6.0 0.00 0.00 0.00 11 1012.0
20260507192903 90 242 1.0 3.0 0.00 0.00 0.00 11 1012.2
20260507192403 89 269 1.0 3.0 0.00 0.00 0.00 12 1012.3
20260507191903 89 337 1.0 3.0 0.00 0.00 0.00 12 1012.4
20260507191403 89 323 1.0 5.0 0.00 0.00 0.00 12 1012.5
20260507190903 89 355 2.0 7.0 0.00 0.00 0.00 12 1012.7
20260507190403 88 253 2.0 7.0 0.00 0.00 0.00 13 1012.8
20260507185903 88 279 2.0 5.0 0.00 0.00 0.00 13 1012.6
20260507185403 88 7 2.0 5.0 0.00 0.00 0.00 14 1012.7
20260507184903 87 67 2.0 5.0 0.00 0.00 0.00 14 1012.8
20260507183903 85 219 1.0 5.0 0.00 0.00 0.00 14 1012.9
20260507183403 86 223 2.0 5.0 0.00 0.00 0.00 14 1013.0
20260507182403 85 214 2.0 3.0 0.00 0.00 0.00 14 1013.1
20260507181903 85 222 1.0 5.0 0.00 0.00 0.00 15 1013.3
20260507181403 83 217 2.0 5.0 0.00 0.00 0.00 15 1013.4
20260507180903 83 215 1.0 3.0 0.00 0.00 0.00 15 1013.5
20260507180403 82 94 0.0 3.0 0.00 0.00 0.00 14 1013.6
20260507175902 83 124 2.0 3.0 0.00 0.00 0.00 16 1013.4
20260507175403 83 63 2.0 3.0 0.00 0.00 0.00 17 1013.5
20260507174903 82 55 1.0 3.0 0.00 0.00 0.00 18 1013.5
20260507174403 83 349 2.0 3.0 0.00 0.00 0.00 18 1013.6
20260507173903 83 329 2.0 5.0 0.00 0.00 0.00 18 1013.6
20260507173403 82 321 2.0 5.0 0.00 0.00 0.00 19 1013.8
20260507172904 82 56 1.0 3.0 0.00 0.00 0.00 19 1013.8
20260507172403 81 58 1.0 3.0 0.00 0.00 0.00 20 1013.9
20260507171902 80 0 0.0 3.0 0.00 0.00 0.00 20 1014.0
20260507171403 80 209 0.0 3.0 0.00 0.00 0.00 20 1014.0
20260507170403 79 252 1.0 3.0 0.00 0.00 0.00 20 1014.0
20260507165903 79 251 1.0 3.0 0.00 0.00 0.00 20 1014.1
20260507165403 78 40 1.0 3.0 0.00 0.00 0.00 21 1014.1
20260507164903 77 147 1.0 3.0 0.00 0.00 0.00 22 1014.2
20260507164403 77 5 1.0 2.0 0.00 0.00 0.00 21 1014.2
20260507163403 76 333 1.0 3.0 0.00 0.00 0.00 22 1014.2
20260507162903 76 221 0.0 3.0 0.00 0.00 0.00 22 1014.4
20260507162403 75 152 1.0 8.0 0.00 0.00 0.00 23 1014.3
20260507161904 75 128 3.0 8.0 0.00 0.00 0.00 24 1014.4
20260507161403 75 111 1.0 3.0 0.00 0.00 0.00 24 1014.4
20260507160903 74 140 1.0 3.0 0.00 0.00 0.00 24 1014.4
20260507160403 74 195 1.0 3.0 0.00 0.00 0.00 25 1014.6
20260507155903 74 168 1.0 3.0 0.00 0.00 0.00 24 1014.6
20260507155403 74 148 2.0 5.0 0.00 0.00 0.00 24 1014.7
20260507153903 72 143 1.0 5.0 0.00 0.00 0.00 25 1014.7
20260507152903 71 140 2.0 7.0 0.00 0.00 0.00 26 1014.7
20260507152402 71 116 2.0 3.0 0.00 0.00 0.00 26 1014.7
20260507151902 70 157 1.0 5.0 0.00 0.00 0.00 28 1014.7
20260507151404 69 120 1.0 7.0 0.00 0.00 0.00 28 1014.8
20260507150903 69 136 3.0 7.0 0.00 0.00 0.00 28 1014.8
20260507150404 69 108 1.0 3.0 0.00 0.00 0.00 29 1014.8
20260507144403 67 101 2.0 3.0 0.00 0.00 0.00 31 1014.8
20260507143903 66 116 1.0 3.0 0.00 0.00 0.00 32 1014.9
20260507143403 66 148 1.0 3.0 0.00 0.00 0.00 32 1014.9
20260507142903 66 140 2.0 3.0 0.00 0.00 0.00 31 1014.9
20260507142403 65 58 1.0 3.0 0.00 0.00 0.00 32 1014.9
20260507141903 65 139 1.0 3.0 0.00 0.00 0.00 34 1015.0
20260507141403 64 111 1.0 3.0 0.00 0.00 0.00 35 1015.0
20260507140903 63 128 2.0 3.0 0.00 0.00 0.00 34 1014.9
20260507135903 63 113 1.0 3.0 0.00 0.00 0.00 35 1014.9
20260507135403 63 131 1.0 3.0 0.00 0.00 0.00 36 1014.9
20260507134903 62 104 0.0 3.0 0.00 0.00 0.00 37 1014.8
20260507134403 62 81 1.0 3.0 0.00 0.00 0.00 37 1014.8
20260507133903 61 108 1.0 3.0 0.00 0.00 0.00 39 1014.9
20260507133403 60 95 1.0 2.0 0.00 0.00 0.00 40 1014.8
20260507132403 59 85 1.0 2.0 0.00 0.00 0.00 42 1014.6
20260507131403 57 99 0.0 2.0 0.00 0.00 0.00 47 1014.5
20260507130403 56 101 0.0 0.0 0.00 0.00 0.00 48 1014.4
20260507125903 57 101 0.0 0.0 0.00 0.00 0.00 47 1014.3
20260507125403 57 101 0.0 0.0 0.00 0.00 0.00 47 1014.3